Time,TemperatureF,DewpointF,PressureIn,WindDirection,WindDirectionDegrees,WindSpeedMPH,WindSpeedGustMPH,Humidity,HourlyPrecipIn,Conditions,Clouds,dailyrainin,SoftwareType,DateUTC
2013-01-29 00:03:00,76.5,51.0,27.08,ESE,102,19.7,19.7,32,0.00,,---,0.00,VWS V14.01,2013-01-29 06:03:00,
2013-01-29 00:08:00,76.5,51.0,27.08,ESE,117,7.2,13.2,32,0.00,,---,0.00,VWS V14.01,2013-01-29 06:08:00,
2013-01-29 00:13:00,76.5,51.0,27.08,East,91,9.6,21.5,32,0.00,,---,0.00,VWS V14.01,2013-01-29 06:13:00,
2013-01-29 00:18:00,76.5,51.0,27.08,SE,133,8.7,11.0,32,0.00,,---,0.00,VWS V14.01,2013-01-29 06:18:00,
2013-01-29 00:23:00,76.5,51.0,27.08,ESE,113,11.0,11.0,32,0.00,,---,0.00,VWS V14.01,2013-01-29 06:23:00,
2013-01-29 00:28:00,76.5,51.0,27.08,SE,126,8.1,10.1,32,0.00,,---,0.00,VWS V14.01,2013-01-29 06:28:00,
2013-01-29 00:33:00,76.5,51.0,27.08,ESE,121,6.3,10.5,32,0.00,,---,0.00,VWS V14.01,2013-01-29 06:33:00,
2013-01-29 00:38:00,76.5,51.0,27.08,SE,139,5.8,7.2,32,0.00,,---,0.00,VWS V14.01,2013-01-29 06:38:00,
2013-01-29 00:43:00,76.5,51.0,27.08,ESE,120,8.3,8.3,32,0.00,,---,0.00,VWS V14.01,2013-01-29 06:43:00,
2013-01-29 00:48:00,76.5,51.0,27.08,ESE,113,5.4,5.4,32,0.00,,---,0.00,VWS V14.01,2013-01-29 06:48:00,
2013-01-29 00:53:00,76.5,51.0,27.08,East,81,13.2,16.3,32,0.00,,---,0.00,VWS V14.01,2013-01-29 06:53:00,
2013-01-29 00:58:00,76.5,51.0,27.08,SSE,148,4.5,5.4,32,0.00,,---,0.00,VWS V14.01,2013-01-29 06:58:00,
2013-01-29 01:03:00,76.5,51.0,27.08,ESE,114,11.4,11.4,32,0.00,,---,0.00,VWS V14.01,2013-01-29 07:03:00,
2013-01-29 01:08:00,76.5,51.0,27.08,SE,133,4.0,4.0,32,0.00,,---,0.00,VWS V14.01,2013-01-29 07:08:00,
2013-01-29 01:13:00,76.5,51.0,27.08,SE,142,5.8,8.3,32,0.00,,---,0.00,VWS V14.01,2013-01-29 07:13:00,
2013-01-29 01:18:00,76.5,51.0,27.08,SE,144,8.1,8.3,32,0.00,,---,0.00,VWS V14.01,2013-01-29 07:18:00,
2013-01-29 01:23:00,76.5,51.0,27.05,South,184,9.2,9.2,32,0.00,,---,0.00,VWS V14.01,2013-01-29 07:23:00,
2013-01-29 01:28:00,76.5,51.0,27.05,South,189,3.1,6.3,32,0.00,,---,0.00,VWS V14.01,2013-01-29 07:28:00,
2013-01-29 01:33:00,76.5,51.0,27.05,SE,131,4.0,4.9,32,0.00,,---,0.00,VWS V14.01,2013-01-29 07:33:00,
2013-01-29 01:38:00,76.5,51.0,27.05,NE,49,0.0,0.0,32,0.00,,---,0.00,VWS V14.01,2013-01-29 07:38:00,
2013-01-29 01:43:00,76.5,51.0,27.05,SE,145,3.1,8.1,32,0.00,,---,0.00,VWS V14.01,2013-01-29 07:43:00,
2013-01-29 01:48:00,76.5,51.0,27.05,SSE,158,5.8,10.1,32,0.00,,---,0.00,VWS V14.01,2013-01-29 07:48:00,
2013-01-29 01:53:00,76.5,51.0,27.05,ENE,58,3.6,5.4,32,0.00,,---,0.00,VWS V14.01,2013-01-29 07:53:00,
2013-01-29 01:58:00,76.5,51.0,27.05,South,181,6.7,8.3,32,0.00,,---,0.00,VWS V14.01,2013-01-29 07:58:00,
2013-01-29 02:03:00,76.5,51.0,27.05,ESE,116,4.9,8.7,32,0.00,,---,0.00,VWS V14.01,2013-01-29 08:03:00,
2013-01-29 02:08:00,76.5,51.0,27.05,SE,137,2.7,5.4,32,0.00,,---,0.00,VWS V14.01,2013-01-29 08:08:00,
2013-01-29 02:13:00,76.5,51.0,27.05,SE,145,4.9,6.3,32,0.00,,---,0.00,VWS V14.01,2013-01-29 08:13:00,
2013-01-29 02:18:00,76.5,51.0,27.05,NE,51,9.2,9.2,32,0.00,,---,0.00,VWS V14.01,2013-01-29 08:18:00,
2013-01-29 02:23:00,76.5,51.0,27.05,SW,214,7.6,7.6,32,0.00,,---,0.00,VWS V14.01,2013-01-29 08:23:00,
2013-01-29 02:28:00,76.5,51.0,27.05,East,81,3.6,3.6,32,0.00,,---,0.00,VWS V14.01,2013-01-29 08:28:00,
2013-01-29 02:33:00,76.5,51.0,27.05,SSW,192,5.4,7.6,32,0.00,,---,0.00,VWS V14.01,2013-01-29 08:33:00,
2013-01-29 02:38:00,76.5,51.0,27.05,SE,135,8.7,12.8,32,0.00,,---,0.00,VWS V14.01,2013-01-29 08:38:00,
2013-01-29 02:43:00,76.5,51.0,27.05,North,0,2.2,2.2,32,0.00,,---,0.00,VWS V14.01,2013-01-29 08:43:00,
2013-01-29 02:48:00,76.5,51.0,27.05,SE,140,2.7,4.0,32,0.00,,---,0.00,VWS V14.01,2013-01-29 08:48:00,
2013-01-29 02:53:00,76.5,51.0,27.05,ENE,61,8.7,8.7,32,0.00,,---,0.00,VWS V14.01,2013-01-29 08:53:00,
2013-01-29 02:58:00,76.5,51.0,27.05,SE,142,4.9,7.6,32,0.00,,---,0.00,VWS V14.01,2013-01-29 08:58:00,
2013-01-29 03:08:00,76.5,51.0,27.05,ESE,103,7.2,7.2,32,0.00,,---,0.00,VWS V14.01,2013-01-29 09:08:00,
2013-01-29 03:13:00,76.5,51.0,27.05,NNW,343,2.7,8.3,32,0.00,,---,0.00,VWS V14.01,2013-01-29 09:13:00,
2013-01-29 03:18:00,76.5,51.0,27.05,SE,142,2.2,2.2,32,0.00,,---,0.00,VWS V14.01,2013-01-29 09:18:00,
2013-01-29 03:23:00,76.5,51.0,27.05,SSE,155,4.0,7.6,32,0.00,,---,0.00,VWS V14.01,2013-01-29 09:23:00,
2013-01-29 03:28:00,76.5,51.0,27.05,SSE,150,5.4,5.8,32,0.00,,---,0.00,VWS V14.01,2013-01-29 09:28:00,
2013-01-29 03:33:00,76.5,51.0,27.05,SE,140,2.2,9.6,32,0.00,,---,0.00,VWS V14.01,2013-01-29 09:33:00,
2013-01-29 03:38:00,76.5,51.0,27.05,ESE,121,6.3,6.3,32,0.00,,---,0.00,VWS V14.01,2013-01-29 09:38:00,
2013-01-29 03:43:00,76.5,51.0,27.05,SE,125,4.0,5.8,32,0.00,,---,0.00,VWS V14.01,2013-01-29 09:43:00,
2013-01-29 03:48:00,76.5,51.0,27.05,East,80,3.1,6.3,32,0.00,,---,0.00,VWS V14.01,2013-01-29 09:48:00,
2013-01-29 03:53:00,76.5,51.0,27.05,SE,140,3.1,4.5,32,0.00,,---,0.00,VWS V14.01,2013-01-29 09:53:00,
2013-01-29 03:58:00,76.5,51.0,27.05,SE,126,3.6,6.3,32,0.00,,---,0.00,VWS V14.01,2013-01-29 09:58:00,
2013-01-29 04:03:00,76.5,51.0,27.05,ESE,109,4.9,4.9,32,0.00,,---,0.00,VWS V14.01,2013-01-29 10:03:00,
2013-01-29 04:08:00,76.5,51.0,27.05,NNE,19,4.0,4.9,32,0.00,,---,0.00,VWS V14.01,2013-01-29 10:08:00,
2013-01-29 04:13:00,76.5,51.0,27.05,SE,124,15.4,15.4,32,0.00,,---,0.00,VWS V14.01,2013-01-29 10:13:00,
2013-01-29 04:18:00,76.5,51.0,27.05,SE,132,5.4,6.3,32,0.00,,---,0.00,VWS V14.01,2013-01-29 10:18:00,
2013-01-29 04:23:00,76.5,51.0,27.05,South,176,6.3,6.3,32,0.00,,---,0.00,VWS V14.01,2013-01-29 10:23:00,
2013-01-29 04:28:00,76.5,51.0,27.05,ESE,102,11.0,12.8,32,0.00,,---,0.00,VWS V14.01,2013-01-29 10:28:00,
2013-01-29 04:33:00,76.5,51.0,27.05,SSW,200,5.4,6.3,32,0.00,,---,0.00,VWS V14.01,2013-01-29 10:33:00,
2013-01-29 04:38:00,76.5,51.0,27.05,SSE,167,5.8,7.6,32,0.00,,---,0.00,VWS V14.01,2013-01-29 10:38:00,
2013-01-29 04:43:00,76.5,51.0,27.05,South,172,4.9,4.9,32,0.00,,---,0.00,VWS V14.01,2013-01-29 10:43:00,
2013-01-29 04:48:00,76.5,51.0,27.05,SSE,162,8.3,11.0,32,0.00,,---,0.00,VWS V14.01,2013-01-29 10:48:00,
2013-01-29 04:53:00,76.5,51.0,27.08,South,171,8.7,8.7,32,0.00,,---,0.00,VWS V14.01,2013-01-29 10:53:00,
2013-01-29 04:58:00,76.5,51.0,27.08,SSW,207,8.7,8.7,32,0.00,,---,0.00,VWS V14.01,2013-01-29 10:58:00,
2013-01-29 05:03:00,76.5,51.0,27.08,SE,131,8.3,8.3,32,0.00,,---,0.00,VWS V14.01,2013-01-29 11:03:00,
2013-01-29 05:08:00,76.5,51.0,27.08,SE,146,5.8,8.3,32,0.00,,---,0.00,VWS V14.01,2013-01-29 11:08:00,
2013-01-29 05:13:00,76.5,51.0,27.08,SSE,157,16.3,16.3,32,0.00,,---,0.00,VWS V14.01,2013-01-29 11:13:00,
2013-01-29 05:18:00,76.5,51.0,27.08,SSE,162,3.1,10.1,32,0.00,,---,0.00,VWS V14.01,2013-01-29 11:18:00,
2013-01-29 05:23:00,76.5,51.0,27.08,SSE,159,6.3,9.6,32,0.00,,---,0.00,VWS V14.01,2013-01-29 11:23:00,
2013-01-29 05:28:00,76.5,51.0,27.08,SE,144,8.3,10.5,32,0.00,,---,0.00,VWS V14.01,2013-01-29 11:28:00,
2013-01-29 05:33:00,76.5,51.0,27.08,SSE,161,8.3,8.3,32,0.00,,---,0.00,VWS V14.01,2013-01-29 11:33:00,
2013-01-29 05:38:00,76.5,51.0,27.08,SE,142,4.0,4.0,32,0.00,,---,0.00,VWS V14.01,2013-01-29 11:38:00,
2013-01-29 05:43:00,76.5,51.0,27.08,North,4,3.6,4.0,32,0.00,,---,0.00,VWS V14.01,2013-01-29 11:43:00,
2013-01-29 05:48:00,76.5,51.0,27.08,SSE,155,2.7,4.9,32,0.00,,---,0.00,VWS V14.01,2013-01-29 11:48:00,
2013-01-29 05:53:00,76.5,51.0,27.08,East,90,7.6,9.6,32,0.00,,---,0.00,VWS V14.01,2013-01-29 11:53:00,
2013-01-29 05:58:00,76.5,51.0,27.08,SE,127,3.6,3.6,32,0.00,,---,0.00,VWS V14.01,2013-01-29 11:58:00,
2013-01-29 06:03:00,76.5,51.0,27.08,WNW,290,3.1,3.1,32,0.00,,---,0.00,VWS V14.01,2013-01-29 12:03:00,
2013-01-29 06:08:00,76.5,51.0,27.08,ESE,109,9.6,9.6,32,0.00,,---,0.00,VWS V14.01,2013-01-29 12:08:00,
2013-01-29 06:13:00,76.5,51.0,27.08,NE,39,10.1,10.5,32,0.00,,---,0.00,VWS V14.01,2013-01-29 12:13:00,
2013-01-29 06:18:00,76.5,51.0,27.08,SSE,149,4.0,8.7,32,0.00,,---,0.00,VWS V14.01,2013-01-29 12:18:00,
2013-01-29 06:23:00,76.5,51.0,27.08,ESE,103,3.6,5.8,32,0.00,,---,0.00,VWS V14.01,2013-01-29 12:23:00,
2013-01-29 06:28:00,76.5,51.0,27.08,WNW,295,10.1,10.5,32,0.00,,---,0.00,VWS V14.01,2013-01-29 12:28:00,
2013-01-29 06:33:00,76.5,51.0,27.08,ENE,77,5.4,7.6,32,0.00,,---,0.00,VWS V14.01,2013-01-29 12:33:00,
2013-01-29 06:38:00,76.5,51.0,27.08,SSW,209,5.4,5.4,32,0.00,,---,0.00,VWS V14.01,2013-01-29 12:38:00,
2013-01-29 06:43:00,76.5,51.0,27.08,SE,141,4.9,7.2,32,0.00,,---,0.00,VWS V14.01,2013-01-29 12:43:00,
2013-01-29 06:48:00,76.5,51.0,27.08,ENE,71,5.4,10.5,32,0.00,,---,0.00,VWS V14.01,2013-01-29 12:48:00,
2013-01-29 06:53:00,76.5,51.0,27.11,SSE,153,10.1,13.2,32,0.00,,---,0.00,VWS V14.01,2013-01-29 12:53:00,
2013-01-29 06:58:00,76.5,51.0,27.11,SSE,155,6.3,13.2,32,0.00,,---,0.00,VWS V14.01,2013-01-29 12:58:00,
2013-01-29 07:03:00,76.5,51.0,27.11,SSE,158,5.8,8.3,32,0.00,,---,0.00,VWS V14.01,2013-01-29 13:03:00,
2013-01-29 07:08:00,76.5,51.0,27.11,ESE,120,5.8,8.1,32,0.00,,---,0.00,VWS V14.01,2013-01-29 13:08:00,
2013-01-29 07:13:00,76.5,51.0,27.11,ESE,112,8.3,8.3,32,0.00,,---,0.00,VWS V14.01,2013-01-29 13:13:00,
2013-01-29 07:18:00,76.5,51.0,27.11,ESE,109,6.3,6.3,32,0.00,,---,0.00,VWS V14.01,2013-01-29 13:18:00,
2013-01-29 07:23:00,76.5,51.0,27.11,ENE,67,6.3,6.3,32,0.00,,---,0.00,VWS V14.01,2013-01-29 13:23:00,
2013-01-29 07:28:00,76.5,51.0,27.11,ESE,112,10.1,10.1,32,0.00,,---,0.00,VWS V14.01,2013-01-29 13:28:00,
2013-01-29 07:33:00,76.5,51.0,27.11,SSE,153,10.1,10.1,32,0.00,,---,0.00,VWS V14.01,2013-01-29 13:33:00,
2013-01-29 07:38:00,76.5,51.0,27.11,South,175,6.7,6.7,32,0.00,,---,0.00,VWS V14.01,2013-01-29 13:38:00,
2013-01-29 07:43:00,76.5,51.0,27.11,SE,144,5.8,5.8,32,0.00,,---,0.00,VWS V14.01,2013-01-29 13:43:00,
2013-01-29 07:48:00,76.5,51.0,27.11,ESE,120,6.3,6.3,32,0.00,,---,0.00,VWS V14.01,2013-01-29 13:48:00,
2013-01-29 07:53:00,76.5,51.0,27.11,SE,138,3.6,3.6,32,0.00,,---,0.00,VWS V14.01,2013-01-29 13:53:00,
2013-01-29 07:58:00,76.5,51.0,27.11,SE,130,2.7,3.1,32,0.00,,---,0.00,VWS V14.01,2013-01-29 13:58:00,
2013-01-29 08:03:00,76.5,51.0,27.11,SSE,149,4.0,6.3,32,0.00,,---,0.00,VWS V14.01,2013-01-29 14:03:00,
2013-01-29 08:08:00,76.5,51.0,27.11,East,86,6.3,6.3,32,0.00,,---,0.00,VWS V14.01,2013-01-29 14:08:00,
2013-01-29 08:13:00,76.5,51.0,27.11,SE,143,5.4,6.3,32,0.00,,---,0.00,VWS V14.01,2013-01-29 14:13:00,
2013-01-29 08:18:00,76.5,51.0,27.11,ENE,71,5.8,15.4,32,0.00,,---,0.00,VWS V14.01,2013-01-29 14:18:00,
2013-01-29 08:23:00,76.5,51.0,27.11,East,95,4.0,7.6,32,0.00,,---,0.00,VWS V14.01,2013-01-29 14:23:00,
2013-01-29 08:28:00,76.5,51.0,27.11,East,90,3.6,4.9,32,0.00,,---,0.00,VWS V14.01,2013-01-29 14:28:00,
2013-01-29 08:33:00,76.5,51.0,27.11,SE,124,4.0,5.8,32,0.00,,---,0.00,VWS V14.01,2013-01-29 14:33:00,
2013-01-29 08:38:00,76.5,51.0,27.11,SE,136,3.6,7.6,32,0.00,,---,0.00,VWS V14.01,2013-01-29 14:38:00,
2013-01-29 08:43:00,76.5,51.0,27.11,ESE,105,3.1,5.4,32,0.00,,---,0.00,VWS V14.01,2013-01-29 14:43:00,
2013-01-29 08:48:00,76.5,51.0,27.11,SE,127,5.8,6.3,32,0.00,,---,0.00,VWS V14.01,2013-01-29 14:48:00,
2013-01-29 08:53:00,76.5,51.0,27.14,SE,130,5.4,8.7,32,0.00,,---,0.00,VWS V14.01,2013-01-29 14:53:00,
2013-01-29 08:58:00,76.5,51.0,27.14,SE,129,4.0,7.6,32,0.00,,---,0.00,VWS V14.01,2013-01-29 14:58:00,
2013-01-29 09:03:00,76.5,51.0,27.14,East,85,3.6,8.7,32,0.00,,---,0.00,VWS V14.01,2013-01-29 15:03:00,
2013-01-29 09:27:00,76.5,51.0,27.11,ESE,116,8.7,8.7,32,0.00,,---,0.00,VWS V14.01,2013-01-29 15:27:00,
2013-01-29 09:32:00,76.5,51.0,27.11,ESE,115,8.7,15.4,32,0.00,,---,0.00,VWS V14.01,2013-01-29 15:32:00,
2013-01-29 09:37:00,76.5,51.0,27.11,ESE,120,6.3,8.1,32,0.00,,---,0.00,VWS V14.01,2013-01-29 15:37:00,
2013-01-29 09:42:00,76.5,51.0,27.11,SE,128,3.6,6.3,32,0.00,,---,0.00,VWS V14.01,2013-01-29 15:42:00,
2013-01-29 09:47:00,76.5,51.0,27.11,ESE,123,8.1,10.1,32,0.00,,---,0.00,VWS V14.01,2013-01-29 15:47:00,
2013-01-29 09:52:00,76.5,51.0,27.11,SSE,147,5.8,5.8,32,0.00,,---,0.00,VWS V14.01,2013-01-29 15:52:00,
2013-01-29 09:57:00,76.5,51.0,27.11,ESE,109,11.0,11.0,32,0.00,,---,0.00,VWS V14.01,2013-01-29 15:57:00,
2013-01-29 10:02:00,76.5,51.0,27.11,East,98,10.5,12.3,32,0.00,,---,0.00,VWS V14.01,2013-01-29 16:02:00,
2013-01-29 10:07:00,76.5,51.0,27.11,East,90,15.4,15.4,32,0.00,,---,0.00,VWS V14.01,2013-01-29 16:07:00,
2013-01-29 10:12:00,76.5,51.0,27.11,SSE,159,8.7,8.7,32,0.00,,---,0.00,VWS V14.01,2013-01-29 16:12:00,
2013-01-29 10:17:00,76.5,51.0,27.11,SE,131,10.1,10.5,32,0.00,,---,0.00,VWS V14.01,2013-01-29 16:17:00,
2013-01-29 10:22:00,76.5,51.0,27.11,SE,138,4.9,8.1,32,0.00,,---,0.00,VWS V14.01,2013-01-29 16:22:00,
2013-01-29 10:27:00,76.5,51.0,27.11,East,81,10.5,13.6,32,0.00,,---,0.00,VWS V14.01,2013-01-29 16:27:00,
2013-01-29 10:32:00,76.5,51.0,27.11,ESE,113,5.4,5.4,32,0.00,,---,0.00,VWS V14.01,2013-01-29 16:32:00,
2013-01-29 10:37:00,76.5,51.0,27.11,SE,127,5.4,8.1,32,0.00,,---,0.00,VWS V14.01,2013-01-29 16:37:00,
2013-01-29 10:42:00,76.5,51.0,27.11,SE,141,5.4,5.4,32,0.00,,---,0.00,VWS V14.01,2013-01-29 16:42:00,
2013-01-29 10:47:00,76.5,51.0,27.11,ESE,116,6.3,7.6,32,0.00,,---,0.00,VWS V14.01,2013-01-29 16:47:00,
2013-01-29 10:52:00,76.5,51.0,27.11,SE,132,10.5,10.5,32,0.00,,---,0.00,VWS V14.01,2013-01-29 16:52:00,
2013-01-29 10:57:00,76.5,51.0,27.11,ESE,103,5.4,5.4,32,0.00,,---,0.00,VWS V14.01,2013-01-29 16:57:00,
2013-01-29 11:02:00,76.5,51.0,27.11,ESE,116,5.4,5.4,32,0.00,,---,0.00,VWS V14.01,2013-01-29 17:02:00,
2013-01-29 11:07:00,76.5,51.0,27.11,ESE,107,7.6,7.6,32,0.00,,---,0.00,VWS V14.01,2013-01-29 17:07:00,
2013-01-29 11:12:00,76.5,51.0,27.11,East,97,8.7,12.8,32,0.00,,---,0.00,VWS V14.01,2013-01-29 17:12:00,
2013-01-29 11:17:00,76.5,51.0,27.11,SSE,147,7.6,7.6,32,0.00,,---,0.00,VWS V14.01,2013-01-29 17:17:00,
2013-01-29 11:22:00,76.5,51.0,27.11,SE,139,11.0,11.0,32,0.00,,---,0.00,VWS V14.01,2013-01-29 17:22:00,
2013-01-29 11:27:00,76.5,51.0,27.11,SE,130,10.1,10.1,32,0.00,,---,0.00,VWS V14.01,2013-01-29 17:27:00,
2013-01-29 11:32:00,76.5,51.0,27.11,East,79,3.1,7.2,32,0.00,,---,0.00,VWS V14.01,2013-01-29 17:32:00,
2013-01-29 11:37:00,76.5,51.0,27.11,East,99,5.4,6.3,32,0.00,,---,0.00,VWS V14.01,2013-01-29 17:37:00,
2013-01-29 11:42:00,76.5,51.0,27.11,SE,127,8.7,8.7,32,0.00,,---,0.00,VWS V14.01,2013-01-29 17:42:00,
2013-01-29 11:47:00,76.5,51.0,27.11,ESE,109,3.1,4.5,32,0.00,,---,0.00,VWS V14.01,2013-01-29 17:47:00,
2013-01-29 11:52:00,76.5,51.0,27.11,SE,126,13.2,13.2,32,0.00,,---,0.00,VWS V14.01,2013-01-29 17:52:00,
2013-01-29 11:57:00,76.5,51.0,27.11,South,184,7.6,7.6,32,0.00,,---,0.00,VWS V14.01,2013-01-29 17:57:00,
2013-01-29 12:02:00,76.5,51.0,27.11,SE,133,8.3,8.3,32,0.00,,---,0.00,VWS V14.01,2013-01-29 18:02:00,
2013-01-29 12:07:00,76.5,51.0,27.11,East,95,5.4,5.4,32,0.00,,---,0.00,VWS V14.01,2013-01-29 18:07:00,
2013-01-29 12:12:00,76.5,51.0,27.11,SE,133,5.8,5.8,32,0.00,,---,0.00,VWS V14.01,2013-01-29 18:12:00,
2013-01-29 12:17:00,76.5,51.0,27.11,SE,125,5.8,5.8,32,0.00,,---,0.00,VWS V14.01,2013-01-29 18:17:00,
2013-01-29 12:22:00,76.5,51.0,27.11,SE,143,3.6,5.4,32,0.00,,---,0.00,VWS V14.01,2013-01-29 18:22:00,
2013-01-29 12:27:00,76.5,51.0,27.08,SE,136,5.8,5.8,32,0.00,,---,0.00,VWS V14.01,2013-01-29 18:27:00,
2013-01-29 12:32:00,76.5,51.0,27.08,ESE,122,8.7,8.7,32,0.00,,---,0.00,VWS V14.01,2013-01-29 18:32:00,
2013-01-29 12:37:00,76.5,51.0,27.08,SE,146,12.3,12.3,32,0.00,,---,0.00,VWS V14.01,2013-01-29 18:37:00,
2013-01-29 12:42:00,76.5,51.0,27.08,SSE,154,5.4,7.6,32,0.00,,---,0.00,VWS V14.01,2013-01-29 18:42:00,
2013-01-29 12:47:00,76.5,51.0,27.08,East,95,10.5,10.5,32,0.00,,---,0.00,VWS V14.01,2013-01-29 18:47:00,
2013-01-29 12:52:00,76.5,51.0,27.08,ESE,122,3.1,6.3,32,0.00,,---,0.00,VWS V14.01,2013-01-29 18:52:00,
2013-01-29 12:57:00,76.5,51.0,27.08,SE,142,11.0,11.0,32,0.00,,---,0.00,VWS V14.01,2013-01-29 18:57:00,
2013-01-29 13:02:00,76.5,51.0,27.08,ESE,117,4.9,5.8,32,0.00,,---,0.00,VWS V14.01,2013-01-29 19:02:00,
2013-01-29 13:07:00,76.5,51.0,27.08,SSE,154,11.0,11.0,32,0.00,,---,0.00,VWS V14.01,2013-01-29 19:07:00,
2013-01-29 13:12:00,76.5,51.0,27.08,SSE,152,9.6,10.5,32,0.00,,---,0.00,VWS V14.01,2013-01-29 19:12:00,
2013-01-29 13:17:00,76.5,51.0,27.08,SE,141,8.1,8.1,32,0.00,,---,0.00,VWS V14.01,2013-01-29 19:17:00,
2013-01-29 13:22:00,76.5,51.0,27.08,SE,135,12.8,12.8,32,0.00,,---,0.00,VWS V14.01,2013-01-29 19:22:00,
2013-01-29 13:27:00,76.5,51.0,27.08,SSE,153,10.1,10.5,32,0.00,,---,0.00,VWS V14.01,2013-01-29 19:27:00,
2013-01-29 13:32:00,76.5,51.0,27.08,ESE,112,14.5,14.5,32,0.00,,---,0.00,VWS V14.01,2013-01-29 19:32:00,
2013-01-29 13:37:00,76.5,51.0,27.08,SE,141,8.1,11.0,32,0.00,,---,0.00,VWS V14.01,2013-01-29 19:37:00,
2013-01-29 13:42:00,76.5,51.0,27.05,SSE,157,8.7,8.7,32,0.00,,---,0.00,VWS V14.01,2013-01-29 19:42:00,
2013-01-29 13:47:00,76.5,51.0,27.05,SE,126,6.7,7.6,32,0.00,,---,0.00,VWS V14.01,2013-01-29 19:47:00,
2013-01-29 13:52:00,76.5,51.0,27.05,SE,140,3.1,3.6,32,0.00,,---,0.00,VWS V14.01,2013-01-29 19:52:00,
2013-01-29 13:57:00,76.5,51.0,27.05,SE,138,12.8,12.8,32,0.00,,---,0.00,VWS V14.01,2013-01-29 19:57:00,
2013-01-29 13:58:00,76.5,51.0,27.05,SE,138,6.3,12.8,32,0.00,,---,0.00,VWS V14.01,2013-01-29 19:58:00,
2013-01-29 14:03:00,76.5,51.0,27.05,SSE,156,8.7,8.7,32,0.00,,---,0.00,VWS V14.01,2013-01-29 20:03:00,
2013-01-29 14:08:00,76.5,51.0,27.05,SE,135,6.3,6.3,32,0.00,,---,0.00,VWS V14.01,2013-01-29 20:08:00,
2013-01-29 14:13:00,76.5,51.0,27.05,SSE,147,10.1,10.1,32,0.00,,---,0.00,VWS V14.01,2013-01-29 20:13:00,
2013-01-29 14:17:00,76.5,51.0,27.05,SE,143,8.7,8.7,32,0.00,,---,0.00,VWS V14.01,2013-01-29 20:17:00,
2013-01-29 14:22:00,76.5,51.0,27.05,South,178,13.2,13.2,32,0.00,,---,0.00,VWS V14.01,2013-01-29 20:22:00,
2013-01-29 14:27:00,76.5,51.0,27.05,SSE,159,10.1,10.1,32,0.00,,---,0.00,VWS V14.01,2013-01-29 20:27:00,
2013-01-29 14:32:00,76.5,51.0,27.05,ESE,113,5.8,5.8,32,0.00,,---,0.00,VWS V14.01,2013-01-29 20:32:00,
2013-01-29 14:37:00,76.5,51.0,27.05,SE,136,3.6,4.9,32,0.00,,---,0.00,VWS V14.01,2013-01-29 20:37:00,
2013-01-29 14:42:00,76.5,51.0,27.05,SE,135,5.8,5.8,32,0.00,,---,0.00,VWS V14.01,2013-01-29 20:42:00,
2013-01-29 14:48:00,76.5,51.0,27.05,SE,142,4.0,5.4,32,0.00,,---,0.00,VWS V14.01,2013-01-29 20:48:00,
2013-01-29 14:53:00,76.5,51.0,27.05,SSE,150,8.1,8.1,32,0.00,,---,0.00,VWS V14.01,2013-01-29 20:53:00,
2013-01-29 14:58:00,76.5,51.0,27.05,SSE,159,2.7,4.9,32,0.00,,---,0.00,VWS V14.01,2013-01-29 20:58:00,
2013-01-29 15:03:00,76.5,51.0,27.05,SE,135,4.0,7.6,32,0.00,,---,0.00,VWS V14.01,2013-01-29 21:03:00,
2013-01-29 15:08:00,76.5,51.0,27.05,ENE,77,8.1,8.7,32,0.00,,---,0.00,VWS V14.01,2013-01-29 21:08:00,
2013-01-29 15:13:00,76.5,51.0,27.05,SE,132,3.6,7.6,32,0.00,,---,0.00,VWS V14.01,2013-01-29 21:13:00,
2013-01-29 15:18:00,76.5,51.0,27.05,SSE,147,3.6,5.4,32,0.00,,---,0.00,VWS V14.01,2013-01-29 21:18:00,
2013-01-29 15:23:00,76.5,51.0,27.05,SE,125,3.6,3.6,32,0.00,,---,0.00,VWS V14.01,2013-01-29 21:23:00,
2013-01-29 15:28:00,76.5,51.0,27.05,South,177,2.7,3.6,32,0.00,,---,0.00,VWS V14.01,2013-01-29 21:28:00,
2013-01-29 15:33:00,76.5,51.0,27.05,East,94,2.7,6.7,32,0.00,,---,0.00,VWS V14.01,2013-01-29 21:33:00,
2013-01-29 15:37:00,76.5,51.0,27.05,SSE,149,3.6,5.4,32,0.00,,---,0.00,VWS V14.01,2013-01-29 21:37:00,
2013-01-29 15:42:00,76.5,51.0,27.05,ENE,69,3.6,8.1,32,0.00,,---,0.00,VWS V14.01,2013-01-29 21:42:00,
2013-01-29 15:47:00,76.5,51.0,27.05,ESE,115,3.6,4.9,32,0.00,,---,0.00,VWS V14.01,2013-01-29 21:47:00,
2013-01-29 15:52:00,76.5,51.0,27.05,ENE,71,6.3,6.3,32,0.00,,---,0.00,VWS V14.01,2013-01-29 21:52:00,
2013-01-29 15:57:00,76.5,51.0,27.05,NE,55,8.3,8.3,32,0.00,,---,0.00,VWS V14.01,2013-01-29 21:57:00,
2013-01-29 16:02:00,76.5,51.0,27.05,East,99,7.6,7.6,32,0.00,,---,0.00,VWS V14.01,2013-01-29 22:02:00,
2013-01-29 16:07:00,76.5,51.0,27.05,ENE,74,4.0,4.0,32,0.00,,---,0.00,VWS V14.01,2013-01-29 22:07:00,
2013-01-29 16:12:00,76.5,51.0,27.05,East,94,6.3,6.3,32,0.00,,---,0.00,VWS V14.01,2013-01-29 22:12:00,
2013-01-29 16:17:00,76.5,51.0,27.05,SE,140,4.5,8.7,32,0.00,,---,0.00,VWS V14.01,2013-01-29 22:17:00,
2013-01-29 16:22:00,76.5,51.0,27.05,East,80,4.9,4.9,32,0.00,,---,0.00,VWS V14.01,2013-01-29 22:22:00,
2013-01-29 16:27:00,76.5,51.0,27.05,SSE,159,3.6,3.6,32,0.00,,---,0.00,VWS V14.01,2013-01-29 22:27:00,
2013-01-29 16:32:00,76.5,51.0,27.05,SE,145,7.6,7.6,32,0.00,,---,0.00,VWS V14.01,2013-01-29 22:32:00,
2013-01-29 16:37:00,76.5,51.0,27.05,SE,141,3.1,3.1,32,0.00,,---,0.00,VWS V14.01,2013-01-29 22:37:00,
2013-01-29 16:42:00,76.5,51.0,27.05,South,169,3.6,3.6,32,0.00,,---,0.00,VWS V14.01,2013-01-29 22:42:00,
2013-01-29 16:47:00,76.5,51.0,27.05,WNW,290,2.2,2.7,32,0.00,,---,0.00,VWS V14.01,2013-01-29 22:47:00,
2013-01-29 16:52:00,76.5,51.0,27.05,ENE,57,3.1,4.0,32,0.00,,---,0.00,VWS V14.01,2013-01-29 22:52:00,
2013-01-29 16:57:00,76.5,51.0,27.05,East,96,4.0,10.5,32,0.00,,---,0.00,VWS V14.01,2013-01-29 22:57:00,
2013-01-29 17:02:00,76.5,51.0,27.05,ESE,115,2.7,3.6,32,0.00,,---,0.00,VWS V14.01,2013-01-29 23:02:00,
2013-01-29 17:07:00,76.5,51.0,27.05,SE,142,3.6,3.6,32,0.00,,---,0.00,VWS V14.01,2013-01-29 23:07:00,
2013-01-29 17:12:00,76.5,51.0,27.05,ESE,121,2.7,4.0,32,0.00,,---,0.00,VWS V14.01,2013-01-29 23:12:00,
2013-01-29 17:17:00,76.5,51.0,27.05,East,87,10.5,10.5,32,0.00,,---,0.00,VWS V14.01,2013-01-29 23:17:00,
2013-01-29 17:22:00,76.5,51.0,27.05,SE,146,8.1,8.7,32,0.00,,---,0.00,VWS V14.01,2013-01-29 23:22:00,
2013-01-29 17:27:00,76.5,51.0,27.05,SE,133,3.6,4.0,32,0.00,,---,0.00,VWS V14.01,2013-01-29 23:27:00,
2013-01-29 17:32:00,76.5,51.0,27.05,ESE,110,3.1,5.8,32,0.00,,---,0.00,VWS V14.01,2013-01-29 23:32:00,
2013-01-29 17:37:00,76.5,51.0,27.05,SE,128,6.3,6.3,32,0.00,,---,0.00,VWS V14.01,2013-01-29 23:37:00,
2013-01-29 17:42:00,76.5,51.0,27.05,East,85,0.0,3.6,32,0.00,,---,0.00,VWS V14.01,2013-01-29 23:42:00,
2013-01-29 17:47:00,76.5,51.0,27.05,SE,146,8.7,8.7,32,0.00,,---,0.00,VWS V14.01,2013-01-29 23:47:00,
2013-01-29 17:52:00,76.5,51.0,27.05,SE,137,3.1,5.8,32,0.00,,---,0.00,VWS V14.01,2013-01-29 23:52:00,
2013-01-29 17:57:00,76.5,51.0,27.05,SE,126,4.0,5.8,32,0.00,,---,0.00,VWS V14.01,2013-01-29 23:57:00,
2013-01-29 18:02:00,76.5,51.0,27.05,East,94,3.6,8.7,32,0.00,,---,0.00,VWS V14.01,2013-01-30 00:02:00,
2013-01-29 18:07:00,76.5,51.0,27.05,SSE,153,8.1,8.1,32,0.00,,---,0.00,VWS V14.01,2013-01-30 00:07:00,
2013-01-29 18:12:00,76.5,51.0,27.05,SE,136,5.4,8.1,32,0.00,,---,0.00,VWS V14.01,2013-01-30 00:12:00,
2013-01-29 18:17:00,76.5,51.0,27.05,SE,126,8.1,8.1,32,0.00,,---,0.00,VWS V14.01,2013-01-30 00:17:00,
2013-01-29 18:22:00,76.5,51.0,27.05,South,169,5.4,8.7,32,0.00,,---,0.00,VWS V14.01,2013-01-30 00:22:00,
2013-01-29 18:27:00,76.5,51.0,27.05,ESE,121,4.0,6.3,32,0.00,,---,0.00,VWS V14.01,2013-01-30 00:27:00,
2013-01-29 18:32:00,76.5,51.0,27.05,South,182,3.6,8.1,32,0.00,,---,0.00,VWS V14.01,2013-01-30 00:32:00,
2013-01-29 18:37:00,76.5,51.0,27.05,NE,43,3.6,11.4,32,0.00,,---,0.00,VWS V14.01,2013-01-30 00:37:00,
2013-01-29 18:42:00,76.5,51.0,27.05,ESE,107,4.9,4.9,32,0.00,,---,0.00,VWS V14.01,2013-01-30 00:42:00,
2013-01-29 18:47:00,76.5,51.0,27.05,South,173,3.6,5.4,32,0.00,,---,0.00,VWS V14.01,2013-01-30 00:47:00,
2013-01-29 18:52:00,76.5,51.0,27.05,ENE,69,7.6,7.6,32,0.00,,---,0.00,VWS V14.01,2013-01-30 00:52:00,
2013-01-29 18:57:00,76.5,51.0,27.05,SE,137,5.8,5.8,32,0.00,,---,0.00,VWS V14.01,2013-01-30 00:57:00,
2013-01-29 19:02:00,76.5,51.0,27.05,ESE,109,4.0,5.8,32,0.00,,---,0.00,VWS V14.01,2013-01-30 01:02:00,
2013-01-29 19:07:00,76.5,51.0,27.05,SSE,158,8.7,8.7,32,0.00,,---,0.00,VWS V14.01,2013-01-30 01:07:00,
2013-01-29 19:12:00,76.5,51.0,27.05,SE,124,5.4,5.4,32,0.00,,---,0.00,VWS V14.01,2013-01-30 01:12:00,
2013-01-29 19:17:00,76.5,51.0,27.05,SE,126,4.0,7.6,32,0.00,,---,0.00,VWS V14.01,2013-01-30 01:17:00,
2013-01-29 19:22:00,76.5,51.0,27.05,East,90,8.1,8.1,32,0.00,,---,0.00,VWS V14.01,2013-01-30 01:22:00,
2013-01-29 19:27:00,76.5,51.0,27.05,East,87,11.0,11.0,32,0.00,,---,0.00,VWS V14.01,2013-01-30 01:27:00,
2013-01-29 19:32:00,76.5,51.0,27.05,SE,124,4.9,10.5,32,0.00,,---,0.00,VWS V14.01,2013-01-30 01:32:00,
2013-01-29 19:37:00,76.5,51.0,27.05,SE,144,3.6,7.6,32,0.00,,---,0.00,VWS V14.01,2013-01-30 01:37:00,
2013-01-29 19:42:00,76.5,51.0,27.08,SE,134,3.6,4.0,32,0.00,,---,0.00,VWS V14.01,2013-01-30 01:42:00,
2013-01-29 19:47:00,76.5,51.0,27.08,ESE,105,5.8,8.1,32,0.00,,---,0.00,VWS V14.01,2013-01-30 01:47:00,
2013-01-29 19:52:00,76.5,51.0,27.08,SE,126,4.9,10.1,32,0.00,,---,0.00,VWS V14.01,2013-01-30 01:52:00,
2013-01-29 19:57:00,76.5,51.0,27.08,South,180,8.1,8.3,32,0.00,,---,0.00,VWS V14.01,2013-01-30 01:57:00,
2013-01-29 20:02:00,76.5,51.0,27.08,East,79,7.6,8.3,32,0.00,,---,0.00,VWS V14.01,2013-01-30 02:02:00,
2013-01-29 20:07:00,76.5,51.0,27.08,SE,128,4.0,6.3,32,0.00,,---,0.00,VWS V14.01,2013-01-30 02:07:00,
2013-01-29 20:12:00,76.5,51.0,27.08,SSE,156,4.0,9.2,32,0.00,,---,0.00,VWS V14.01,2013-01-30 02:12:00,
2013-01-29 20:17:00,76.5,51.0,27.08,SE,139,12.8,12.8,32,0.00,,---,0.00,VWS V14.01,2013-01-30 02:17:00,
2013-01-29 20:22:00,76.5,51.0,27.08,ESE,106,5.8,11.0,32,0.00,,---,0.00,VWS V14.01,2013-01-30 02:22:00,
2013-01-29 20:27:00,76.5,51.0,27.08,East,98,2.7,5.8,32,0.00,,---,0.00,VWS V14.01,2013-01-30 02:27:00,
2013-01-29 20:32:00,76.5,51.0,27.08,SSE,159,8.1,8.1,32,0.00,,---,0.00,VWS V14.01,2013-01-30 02:32:00,
2013-01-29 20:37:00,76.5,51.0,27.08,SE,145,2.7,5.4,32,0.00,,---,0.00,VWS V14.01,2013-01-30 02:37:00,
2013-01-29 20:42:00,76.5,51.0,27.05,SSE,167,3.1,5.4,32,0.00,,---,0.00,VWS V14.01,2013-01-30 02:42:00,
2013-01-29 20:47:00,76.5,51.0,27.05,SE,142,3.6,3.6,32,0.00,,---,0.00,VWS V14.01,2013-01-30 02:47:00,
2013-01-29 20:52:00,76.5,51.0,27.05,SSE,149,10.5,10.5,32,0.00,,---,0.00,VWS V14.01,2013-01-30 02:52:00,
2013-01-29 20:57:00,76.5,51.0,27.08,East,83,6.3,8.1,32,0.00,,---,0.00,VWS V14.01,2013-01-30 02:57:00,
2013-01-29 21:02:00,76.5,51.0,27.08,SE,140,5.4,5.4,32,0.00,,---,0.00,VWS V14.01,2013-01-30 03:02:00,
2013-01-29 21:07:00,76.5,51.0,27.08,SW,218,12.3,12.3,32,0.00,,---,0.00,VWS V14.01,2013-01-30 03:07:00,
2013-01-29 21:12:00,76.5,51.0,27.08,ENE,78,6.3,8.1,32,0.00,,---,0.00,VWS V14.01,2013-01-30 03:12:00,
2013-01-29 21:17:00,76.5,51.0,27.08,SE,143,4.9,5.8,32,0.00,,---,0.00,VWS V14.01,2013-01-30 03:17:00,
2013-01-29 21:22:00,76.5,51.0,27.08,SSE,151,6.3,9.2,32,0.00,,---,0.00,VWS V14.01,2013-01-30 03:22:00,
2013-01-29 21:27:00,76.5,51.0,27.08,SE,143,5.8,6.3,32,0.00,,---,0.00,VWS V14.01,2013-01-30 03:27:00,
2013-01-29 21:32:00,76.5,51.0,27.08,ESE,115,7.6,7.6,32,0.00,,---,0.00,VWS V14.01,2013-01-30 03:32:00,
2013-01-29 21:37:00,76.5,51.0,27.08,ESE,113,5.8,12.8,32,0.00,,---,0.00,VWS V14.01,2013-01-30 03:37:00,
2013-01-29 21:42:00,76.5,51.0,27.08,ESE,118,8.7,8.7,32,0.00,,---,0.00,VWS V14.01,2013-01-30 03:42:00,
2013-01-29 21:47:00,76.5,51.0,27.08,ESE,102,8.1,11.0,32,0.00,,---,0.00,VWS V14.01,2013-01-30 03:47:00,
2013-01-29 21:52:00,76.5,51.0,27.08,ESE,122,5.8,6.3,32,0.00,,---,0.00,VWS V14.01,2013-01-30 03:52:00,
2013-01-29 21:57:00,76.5,51.0,27.08,SE,140,8.3,13.2,32,0.00,,---,0.00,VWS V14.01,2013-01-30 03:57:00,
2013-01-29 22:02:00,76.5,51.0,27.08,SE,142,11.4,16.8,32,0.00,,---,0.00,VWS V14.01,2013-01-30 04:02:00,
2013-01-29 22:07:00,76.5,51.0,27.08,ENE,65,12.8,12.8,32,0.00,,---,0.00,VWS V14.01,2013-01-30 04:07:00,
2013-01-29 22:12:00,76.5,51.0,27.08,SE,144,5.8,9.6,32,0.00,,---,0.00,VWS V14.01,2013-01-30 04:12:00,
2013-01-29 22:17:00,76.5,51.0,27.08,SE,136,5.8,11.4,32,0.00,,---,0.00,VWS V14.01,2013-01-30 04:17:00,
2013-01-29 22:22:00,76.5,51.0,27.08,SE,126,5.4,7.2,32,0.00,,---,0.00,VWS V14.01,2013-01-30 04:22:00,
2013-01-29 22:27:00,76.5,51.0,27.08,ESE,123,5.8,10.5,32,0.00,,---,0.00,VWS V14.01,2013-01-30 04:27:00,
2013-01-29 22:32:00,76.5,51.0,27.08,SSE,147,4.0,11.0,32,0.00,,---,0.00,VWS V14.01,2013-01-30 04:32:00,
2013-01-29 22:37:00,76.5,51.0,27.08,SE,140,7.6,8.7,32,0.00,,---,0.00,VWS V14.01,2013-01-30 04:37:00,
2013-01-29 22:42:00,76.5,51.0,27.08,SSE,153,9.6,9.6,32,0.00,,---,0.00,VWS V14.01,2013-01-30 04:42:00,
2013-01-29 22:47:00,76.5,51.0,27.08,SSE,159,7.6,11.0,32,0.00,,---,0.00,VWS V14.01,2013-01-30 04:47:00,
2013-01-29 22:52:00,76.5,51.0,27.08,SE,126,6.3,12.8,32,0.00,,---,0.00,VWS V14.01,2013-01-30 04:52:00,
2013-01-29 22:57:00,76.5,51.0,27.08,ESE,102,8.1,15.4,32,0.00,,---,0.00,VWS V14.01,2013-01-30 04:57:00,
2013-01-29 23:01:00,76.5,51.0,27.08,SSE,159,3.6,3.6,32,0.00,,---,0.00,VWS V14.01,2013-01-30 05:01:00,
2013-01-29 23:03:00,76.5,51.0,27.08,South,185,3.6,11.0,32,0.00,,---,0.00,VWS V14.01,2013-01-30 05:03:00,
2013-01-29 23:08:00,76.5,51.0,27.08,SSE,161,10.1,10.1,32,0.00,,---,0.00,VWS V14.01,2013-01-30 05:08:00,
2013-01-29 23:13:00,76.5,51.0,27.08,SSE,160,7.2,11.9,32,0.00,,---,0.00,VWS V14.01,2013-01-30 05:13:00,
2013-01-29 23:18:00,76.5,51.0,27.08,ESE,123,5.8,8.1,32,0.00,,---,0.00,VWS V14.01,2013-01-30 05:18:00,
2013-01-29 23:23:00,76.5,51.0,27.08,ESE,123,8.3,8.3,32,0.00,,---,0.00,VWS V14.01,2013-01-30 05:23:00,
2013-01-29 23:28:00,76.5,51.0,27.08,SE,144,14.5,14.5,32,0.00,,---,0.00,VWS V14.01,2013-01-30 05:28:00,
2013-01-29 23:33:00,76.5,51.0,27.08,SSE,166,5.4,10.1,32,0.00,,---,0.00,VWS V14.01,2013-01-30 05:33:00,
2013-01-29 23:38:00,76.5,51.0,27.08,South,182,3.6,8.1,32,0.00,,---,0.00,VWS V14.01,2013-01-30 05:38:00,
2013-01-29 23:43:00,76.5,51.0,27.08,SE,126,5.8,5.8,32,0.00,,---,0.00,VWS V14.01,2013-01-30 05:43:00,
2013-01-29 23:48:00,76.5,51.0,27.08,ENE,58,5.4,5.4,32,0.00,,---,0.00,VWS V14.01,2013-01-30 05:48:00,
2013-01-29 23:53:00,76.5,51.0,27.08,SE,139,2.7,3.6,32,0.00,,---,0.00,VWS V14.01,2013-01-30 05:53:00,
2013-01-29 23:58:00,76.5,51.0,27.08,ESE,122,4.0,4.9,32,0.00,,---,0.00,VWS V14.01,2013-01-30 05:58:00,